RH
77 79 79 80 85 89 91 92 95 93 92 94 89 87 84 79 80 81 82 84 86 83 82 83 81 80 78 83 84 83 85 80 76 75 74 74 73 73 75 71 66 64 61 57 53 54 54 53 53 48 41 38 38 35 33 33 29 24 21 24 28 31 31 33 35 36 37 38 39 39 39 40 41 41 43 43 44 47 48 50 52 52 53 53 53 53 52 52 52 51 48 42 38 36 35 35 38
76 77 78 81 85 88 91 92 94 94 93 92 85 83 80 77 82 83 83 85 87 83 81 81 82 82 78 78 79 80 85 83 77 75 72 72 74 71 71 70 65 61 57 54 52 51 52 52 51 47 40 36 34 33 33 32 30 26 22 24 28 29 30 33 35 36 38 38 39 41 40 41 42 43 44 44 45 48 49 50 50 51 53 54 53 53 53 53 53 53 52 50 45 40 37 36 37
73 76 78 81 84 86 89 90 93 94 93 90 83 79 78 80 81 82 83 83 83 82 83 82 82 82 77 76 77 80 83 81 77 73 71 72 74 71 68 66 61 57 54 54 52 50 51 51 49 45 38 34 33 34 33 31 29 26 22 25 28 29 31 35 36 38 39 39 40 42 41 42 43 43 44 45 46 48 50 50 50 51 51 54 54 52 52 53 53 55 55 55 53 47 40 36 36
70 73 77 81 84 87 88 89 90 93 91 87 83 79 80 83 80 79 80 79 80 81 81 80 79 78 76 76 75 78 78 79 78 68 69 73 70 68 65 60 56 53 52 52 50 49 48 47 44 39 35 33 33 34 32 30 29 26 23 26 29 31 34 37 39 39 40 40 41 42 42 43 44 44 46 48 49 50 52 52 54 53 51 53 54 53 52 52 52 54 55 56 56 55 47 37 35
71 75 79 82 85 86 87 88 88 90 88 85 83 79 81 84 82 79 78 78 79 80 79 77 75 74 75 74 73 76 75 76 78 66 66 72 66 64 63 56 53 51 50 49 47 47 46 44 39 34 33 33 33 33 31 31 29 25 24 28 31 34 37 40 41 41 41 42 42 41 42 44 46 48 49 52 53 55 55 54 56 56 54 53 55 55 52 51 51 52 53 53 55 56 53 42 37
74 76 78 79 82 85 86 87 88 84 80 81 82 82 81 81 82 78 77 79 77 78 78 74 72 73 74 73 72 75 73 70 74 67 63 71 65 60 59 53 50 50 48 46 45 45 43 40 36 33 32 31 32 31 31 31 28 26 27 29 32 36 40 42 43 43 43 43 42 43 44 45 48 50 52 55 55 57 59 58 58 57 55 54 53 54 55 54 53 53 53 53 55 56 53 45 40
71 75 76 77 80 83 84 84 85 82 75 76 81 82 80 78 80 78 76 75 74 78 79 75 70 72 72 70 69 70 70 67 70 66 61 67 66 61 57 53 50 49 47 44 43 41 38 36 35 33 30 30 31 31 33 32 29 28 28 30 33 39 43 44 44 44 43 43 43 44 46 46 48 49 51 51 52 53 56 58 58 57 56 56 53 53 56 57 55 53 52 54 55 55 53 49 44
69 74 75 77 78 79 80 80 79 78 74 73 78 79 78 80 79 76 77 75 75 79 78 75 70 69 71 69 69 68 68 68 65 62 60 65 67 63 57 53 51 50 46 43 41 37 35 34 33 32 30 32 32 34 36 32 30 29 30 31 35 41 44 44 44 44 43 43 43 43 43 45 45 46 45 45 47 48 52 55 55 55 56 57 53 52 54 53 51 50 49 51 53 54 55 52 47
70 75 76 78 80 77 75 73 71 73 73 74 79 80 79 80 78 74 78 78 75 76 73 71 68 67 71 71 70 69 69 68 63 60 60 63 65 62 57 53 50 47 43 40 38 35 34 34 33 33 33 33 35 37 36 32 30 30 30 32 35 40 44 44 44 44 43 42 41 41 42 42 42 40 38 37 39 39 41 44 45 45 47 49 47 46 48 46 46 45 45 48 51 53 54 55 52
70 73 74 78 80 77 72 69 67 71 74 75 79 80 78 76 73 72 74 73 71 71 69 69 67 65 69 71 72 72 70 67 64 62 60 61 61 60 57 52 48 44 40 38 36 33 33 33 33 35 36 35 37 38 33 30 30 30 31 32 35 39 42 43 43 42 41 40 40 40 40 39 38 36 34 33 31 31 31 33 35 35 35 38 39 40 43 45 45 40 39 43 47 50 52 54 55
68 69 71 77 79 77 72 69 68 70 73 74 75 75 75 72 69 69 68 68 67 66 67 67 65 65 68 73 76 75 72 67 65 64 62 62 62 62 57 51 48 43 38 36 34 33 31 31 33 36 36 36 38 36 31 29 29 30 31 31 33 37 40 41 41 41 40 39 39 38 38 36 35 33 32 30 29 30 31 33 36 36 35 37 39 42 44 45 43 39 39 40 43 46 49 51 53
65 67 69 75 76 72 69 69 69 68 71 73 73 75 74 69 68 67 65 64 64 64 66 64 62 64 68 75 78 76 74 70 66 65 63 64 64 62 58 53 50 43 37 35 33 32 31 31 33 35 36 38 37 32 28 28 28 29 31 31 33 37 39 40 40 40 38 37 36 34 33 31 30 31 31 31 32 34 36 37 38 38 38 39 40 42 43 43 43 41 39 40 41 43 46 49 50
62 66 70 74 74 71 68 68 67 68 72 71 73 79 75 70 66 63 61 64 64 66 66 62 60 62 67 74 77 75 74 71 67 66 64 64 64 61 59 57 51 41 36 35 33 31 31 32 34 35 36 37 35 29 28 27 28 30 30 30 32 36 38 39 39 38 36 34 33 31 29 27 27 28 30 33 36 38 39 38 39 39 40 42 42 43 44 45 44 42 40 39 39 40 42 44 47
59 67 71 73 72 71 67 66 66 67 71 68 71 76 73 70 66 60 58 61 63 64 64 61 60 62 65 71 73 72 73 69 67 67 65 64 64 61 61 58 50 40 36 35 33 32 32 33 35 35 36 37 32 28 27 26 28 30 30 30 32 34 36 37 37 36 34 31 31 29 27 26 25 27 31 36 38 38 39 39 39 40 42 44 44 45 47 48 47 45 44 41 38 38 39 40 42
57 64 69 72 71 68 64 65 65 66 68 67 68 69 69 67 65 62 56 57 58 57 58 59 62 62 63 66 66 68 69 69 68 66 64 65 65 63 62 57 48 40 36 36 34 32 32 34 35 35 36 34 29 27 27 26 28 29 29 30 30 32 34 35 35 33 32 30 29 28 28 27 28 32 35 37 38 38 39 39 39 39 41 42 42 43 44 46 48 47 46 45 42 40 39 39 41
56 59 65 70 70 67 65 63 62 64 67 66 66 66 69 66 63 64 57 53 52 53 56 57 58 59 61 62 63 66 66 69 68 66 65 66 67 64 61 55 47 39 36 36 34 32 32 34 35 35 35 31 28 27 25 25 27 29 29 29 29 31 32 33 32 31 30 29 28 28 30 31 35 39 38 36 36 37 37 38 38 38 39 39 40 40 41 43 45 46 46 47 46 44 44 43 43
56 58 63 66 67 67 64 61 60 62 63 64 65 64 68 66 63 63 58 53 52 55 57 56 56 56 58 61 64 66 65 67 69 68 64 64 66 63 60 55 46 38 35 35 34 32 34 35 36 34 33 29 27 26 25 25 26 28 28 28 28 30 30 30 29 29 29 27 27 31 35 38 41 41 40 38 37 36 37 39 39 40 39 40 41 41 42 43 45 47 48 46 46 46 47 46 47
55 57 62 64 65 64 62 61 61 60 60 63 64 63 64 63 62 60 56 56 56 57 55 54 56 54 56 60 62 66 65 67 68 68 64 61 62 59 58 55 47 38 34 35 34 34 35 36 36 34 31 28 27 26 24 24 25 27 27 27 26 28 28 27 27 28 30 29 30 34 39 42 42 41 41 40 38 37 38 40 41 41 42 42 43 42 44 46 46 47 46 45 45 47 48 48 50
53 53 59 62 61 61 61 61 60 59 59 62 62 58 59 61 60 59 59 58 58 56 55 54 54 53 55 57 59 63 65 66 65 65 63 61 61 58 56 55 49 40 35 36 35 35 35 36 35 33 30 27 26 26 24 24 24 25 26 26 25 26 26 26 27 30 35 35 34 38 41 42 41 41 42 41 41 40 40 40 41 42 44 45 46 46 45 46 47 46 47 47 47 48 48 47 50
51 50 54 58 57 59 61 59 59 58 57 61 60 55 56 59 57 57 60 58 59 61 59 55 52 52 53 54 56 59 62 64 64 63 62 60 60 60 56 54 51 43 37 36 36 35 35 36 35 32 29 26 26 25 24 24 24 24 25 25 25 25 25 26 28 33 39 39 38 39 40 41 41 42 43 44 44 43 42 42 42 43 46 46 48 50 48 47 49 48 49 51 52 52 50 48 50
48 48 48 49 52 57 60 58 58 56 55 57 59 56 57 59 56 55 58 58 60 63 60 56 54 53 51 52 55 57 59 61 62 62 62 62 62 62 59 56 53 47 41 39 38 36 35 36 34 31 28 26 26 25 24 24 24 23 24 25 25 25 27 29 32 37 40 40 39 40 40 41 42 42 42 44 45 43 42 42 43 43 45 48 50 51 49 49 50 51 52 53 55 56 56 56 57
43 46 45 45 50 56 59 58 57 55 54 54 56 56 56 58 57 56 57 57 56 58 59 56 54 52 48 47 52 54 56 58 60 60 61 63 62 62 60 57 55 51 46 44 39 35 36 36 33 30 28 26 26 25 24 23 24 23 24 26 26 27 30 33 35 38 41 40 39 40 40 40 41 43 41 43 44 42 43 43 43 43 45 48 50 51 50 48 49 52 55 56 57 57 61 62 60
39 42 44 48 51 53 56 57 58 55 54 55 56 55 54 57 57 57 59 56 53 55 57 55 50 48 46 46 49 52 54 54 57 60 60 61 61 60 58 56 55 52 48 46 42 37 36 35 34 31 27 27 26 26 25 24 24 24 25 28 30 31 33 34 35 37 40 41 41 41 40 40 42 44 42 42 43 43 43 42 43 45 46 47 47 49 49 48 49 51 53 55 56 56 60 59 56
37 39 42 47 51 50 51 55 57 55 54 56 56 53 52 55 53 54 59 55 52 55 57 55 50 45 44 45 46 49 53 52 54 58 59 60 60 59 58 57 55 54 50 47 44 40 37 35 34 32 28 28 27 27 26 25 26 26 28 32 34 35 35 34 35 36 39 40 40 41 42 42 44 43 42 41 42 44 43 42 43 43 45 47 47 48 49 47 47 48 49 51 52 52 53 53 51
38 37 40 45 49 49 47 50 54 55 53 54 56 52 50 53 49 49 54 55 53 54 55 54 49 45 43 44 45 47 51 53 53 55 58 59 59 59 60 59 56 55 52 48 46 42 40 38 36 33 31 29 29 29 28 27 28 28 31 35 37 37 37 36 37 37 38 38 39 42 43 44 44 42 42 41 40 43 43 41 43 43 43 46 47 45 45 45 44 44 43 44 47 45 44 47 48
38 37 40 42 46 48 47 47 50 53 52 51 54 51 47 50 50 49 50 53 55 54 55 53 47 43 42 41 43 45 47 51 52 52 54 56 56 57 58 58 57 55 53 50 47 43 42 42 38 35 33 31 30 32 32 30 30 31 33 36 38 39 39 39 38 37 37 37 36 41 44 46 45 43 42 41 39 41 42 40 42 42 41 43 46 46 45 45 46 44 40 39 41 41 39 41 41
37 38 40 40 41 44 46 47 49 50 51 51 51 49 46 46 50 52 51 54 57 55 54 54 48 43 41 41 41 43 45 48 50 51 53 53 53 54 54 56 57 55 54 51 46 43 44 42 38 36 35 33 31 33 36 34 32 33 35 37 37 40 43 42 38 36 36 35 34 38 42 46 47 44 41 40 39 39 41 40 40 42 42 42 44 48 49 49 49 46 40 38 39 39 38 38 32
35 36 38 40 40 41 42 45 48 49 50 52 50 48 47 47 50 50 48 53 58 55 53 53 49 42 41 42 41 41 43 45 48 50 51 50 49 50 51 52 53 54 52 49 45 43 43 41 38 39 36 34 33 34 37 36 33 36 38 39 37 38 43 43 39 37 36 34 33 35 39 45 47 44 40 39 40 39 39 39 38 40 42 43 43 44 47 48 50 46 41 40 38 36 35 34 28
33 33 36 39 39 40 39 39 43 47 50 51 49 45 46 47 49 48 45 50 56 56 54 51 48 43 41 40 40 40 41 42 45 47 48 48 47 47 50 50 51 52 50 48 46 44 43 43 41 39 38 36 35 34 36 36 35 36 39 41 38 38 41 42 40 39 37 35 33 33 35 40 43 40 40 39 40 37 36 38 39 40 41 41 42 42 46 49 48 45 42 41 40 37 34 30 27
33 32 34 36 37 38 38 37 38 42 47 50 50 48 45 43 46 47 43 46 53 55 53 52 50 45 41 41 39 39 39 39 41 43 44 44 45 46 49 49 49 50 50 47 47 45 43 45 42 39 38 37 36 35 35 35 35 36 38 41 40 39 41 41 40 40 40 38 34 32 32 36 37 35 36 37 37 35 35 38 41 44 42 40 42 43 46 50 49 45 43 45 44 40 37 30 28
32 32 31 33 36 36 36 36 35 38 43 48 50 49 45 42 45 47 45 43 47 51 51 52 53 49 45 44 41 39 37 37 37 40 42 44 44 45 47 48 47 48 49 46 46 46 45 46 43 40 40 37 35 35 35 35 35 37 38 41 40 40 40 40 41 42 41 39 35 32 31 31 31 30 31 32 33 35 38 41 41 43 42 40 43 44 45 49 50 46 40 41 41 35 32 32 34
28 31 31 31 34 35 35 34 32 35 40 45 46 45 42 41 44 48 48 45 45 49 51 52 55 54 49 46 44 41 38 37 36 35 39 43 43 43 44 45 46 47 46 45 46 47 46 48 45 42 40 37 36 36 36 36 36 37 38 39 40 39 39 39 42 43 42 40 36 33 31 29 28 27 28 29 31 35 42 46 42 41 40 41 45 46 49 52 50 46 39 36 34 28 26 29 32
27 29 30 31 32 34 34 33 30 32 38 43 42 40 40 40 44 48 47 45 45 49 51 52 55 56 50 45 46 44 38 36 35 33 34 38 42 41 41 43 44 46 45 43 45 45 45 47 45 41 38 37 38 37 36 36 37 39 39 38 39 40 40 38 40 42 41 39 38 34 31 28 27 26 26 27 30 34 41 46 44 42 43 44 45 47 52 55 50 48 44 36 33 31 29 29 28
26 27 27 28 30 32 33 32 29 28 34 42 42 38 39 40 43 47 47 46 46 48 52 54 55 55 52 48 46 46 42 38 34 31 31 34 38 40 40 40 42 44 43 42 43 44 44 45 44 42 37 35 38 38 38 38 37 40 40 39 40 41 41 39 39 41 40 39 38 35 31 28 27 26 25 26 28 34 38 43 42 40 43 45 46 47 51 51 49 50 46 35 31 33 32 29 28
23 25 26 25 26 29 30 30 29 28 31 39 44 39 37 41 42 45 46 47 47 49 51 53 52 52 53 52 48 46 45 42 35 31 31 32 34 36 37 39 40 42 42 41 41 42 43 44 44 43 38 34 36 38 40 40 39 41 41 40 41 41 41 40 40 40 40 39 38 36 32 29 27 24 24 26 27 32 36 39 40 37 40 45 46 49 51 48 47 49 45 35 30 30 29 29 30
20 22 23 22 22 24 26 28 29 32 33 36 42 40 37 41 44 44 44 45 47 48 48 50 51 50 52 52 49 46 44 42 38 33 30 31 33 33 34 36 38 40 41 41 41 41 41 42 43 42 40 36 36 39 41 41 40 41 42 40 40 42 40 40 40 40 39 40 39 38 34 30 27 23 23 25 26 32 35 36 38 35 38 45 45 48 50 48 46 46 42 36 32 29 28 28 31
18 21 21 19 20 21 22 25 28 33 35 35 36 38 38 40 43 44 41 41 44 45 45 49 50 49 51 51 48 45 44 42 40 35 32 33 35 36 33 32 34 38 39 40 40 40 40 40 41 40 40 37 36 38 39 39 38 39 41 39 39 41 41 39 41 40 39 40 40 39 36 32 28 23 22 25 26 30 32 32 34 34 37 43 43 43 46 47 47 45 41 37 35 34 31 28 31
16 20 21 18 19 19 19 22 28 32 34 36 36 36 38 39 41 42 39 39 43 42 42 45 47 48 50 49 46 45 45 45 43 39 36 36 37 38 36 32 32 35 37 38 39 40 40 41 41 39 38 37 36 37 37 36 35 35 37 36 36 40 41 39 40 40 39 40 40 39 38 34 29 25 23 24 26 29 31 30 31 32 36 41 42 41 43 46 46 45 41 36 36 37 34 31 31
14 18 20 19 18 18 19 21 27 32 33 35 37 34 35 36 39 43 39 37 40 39 38 41 43 45 47 48 47 46 47 45 43 40 37 37 38 39 38 35 33 33 34 36 37 38 40 41 41 39 37 37 37 36 36 35 33 33 35 35 33 36 38 36 38 40 39 39 39 38 38 35 31 28 26 25 26 28 30 29 27 30 34 38 42 41 41 44 45 46 42 35 36 37 34 32 32
13 17 19 19 17 16 20 24 25 29 32 33 34 34 34 35 37 42 41 38 40 39 38 39 39 40 43 46 46 45 46 45 42 40 39 39 39 39 37 35 34 34 34 34 35 36 37 40 41 39 37 36 36 36 36 35 34 33 35 34 33 35 36 35 36 38 38 37 38 38 37 35 31 29 28 25 26 27 29 29 26 28 33 37 41 41 40 43 45 46 42 36 37 39 36 34 35
12 14 17 17 16 15 19 25 25 26 30 30 32 34 35 35 35 39 41 39 41 42 39 38 38 38 42 46 47 46 45 44 42 42 42 41 40 38 36 34 32 33 34 33 34 33 35 38 40 39 37 35 35 36 35 35 36 35 34 34 35 35 36 34 34 35 35 34 36 36 36 34 31 30 29 26 26 26 28 29 26 26 31 34 38 40 40 43 45 46 42 37 38 42 39 36 36
15 12 14 14 15 14 17 25 26 25 29 29 30 36 38 36 34 38 40 40 42 44 41 39 38 39 41 43 46 46 46 44 43 43 43 42 39 37 36 35 33 31 31 32 33 33 33 36 39 39 36 34 34 35 35 34 35 35 31 31 32 32 32 30 29 29 29 30 32 35 36 34 31 29 29 27 26 26 26 28 26 26 30 32 35 39 40 42 44 45 42 36 39 45 44 40 38
20 14 11 12 13 14 17 25 26 25 27 27 28 33 38 36 33 34 38 40 42 43 41 39 35 35 37 38 42 45 43 42 42 43 44 42 40 36 35 36 34 30 29 30 32 33 33 34 37 38 37 34 33 34 35 34 34 33 30 27 26 26 26 25 25 25 25 25 28 32 35 34 31 29 29 28 26 25 25 27 26 25 28 31 34 37 40 41 43 43 42 38 39 43 46 44 39
18 13 11 11 11 13 16 22 25 24 25 26 25 27 31 33 31 31 32 36 40 42 41 37 33 33 34 36 41 44 42 41 39 42 44 44 42 38 35 35 33 30 30 30 30 31 31 33 34 35 35 34 33 33 34 33 33 31 28 26 25 24 24 23 24 24 24 23 25 29 33 33 32 30 28 25 25 26 25 26 27 25 26 29 33 35 37 39 41 43 43 40 38 40 44 45 40
13 12 13 12 11 11 14 19 23 24 24 25 25 25 29 31 30 29 29 31 37 40 39 36 34 34 34 34 39 42 43 42 39 40 43 44 43 39 36 35 34 33 33 31 29 29 30 32 32 32 33 34 33 33 32 32 31 29 27 25 24 24 24 25 25 24 24 23 24 27 31 33 32 31 28 25 24 24 25 27 28 26 25 27 30 34 36 36 39 43 42 38 36 36 39 40 39
10 11 14 14 12 11 12 14 18 23 26 26 24 24 28 31 30 29 28 28 31 36 37 36 35 35 34 33 37 41 42 41 41 41 42 44 43 40 38 39 37 35 34 33 30 28 29 31 31 30 31 32 32 33 32 32 31 29 26 24 23 23 24 26 26 25 24 23 24 25 29 32 31 29 28 27 25 24 24 26 28 27 25 25 27 31 34 34 36 41 40 36 36 36 34 32 33
11 12 13 14 14 12 11 11 14 20 24 22 21 21 24 30 31 29 27 26 28 32 36 37 35 34 35 33 35 38 41 41 42 42 42 43 42 40 39 39 39 37 34 34 32 29 28 29 30 29 29 31 31 31 31 31 30 28 25 23 22 22 22 24 25 24 22 22 24 25 26 28 29 27 27 28 27 25 24 25 27 28 27 25 25 27 31 32 34 38 39 35 35 36 34 30 31
13 14 14 14 14 12 12 11 12 17 18 16 16 19 21 26 28 27 26 26 28 31 32 34 33 32 35 35 34 37 39 41 42 41 41 42 41 40 38 36 37 36 33 33 32 29 27 28 28 28 29 30 30 30 30 29 29 26 24 23 21 20 20 21 21 21 19 19 22 24 24 25 27 26 26 27 28 26 24 25 26 28 28 26 25 26 29 33 34 36 37 35 34 35 35 31 30
15 15 15 14 15 14 14 14 13 13 14 12 13 16 19 21 21 22 25 26 27 28 26 28 31 30 31 33 36 38 39 40 42 41 40 40 40 41 39 35 33 33 31 31 30 28 26 26 26 26 28 29 30 29 29 28 28 26 23 21 20 19 19 18 17 17 16 16 19 22 23 24 25 25 23 24 25 25 24 25 26 28 29 29 26 25 28 31 34 35 35 34 33 33 35 34 29
15 15 14 14 16 16 16 16 13 12 12 11 10 14 16 15 14 16 21 22 23 26 27 30 34 31 28 30 34 37 39 40 40 40 38 38 39 41 39 35 33 33 32 31 30 27 26 25 25 25 26 28 29 29 28 27 27 26 23 20 18 18 17 17 16 16 14 14 17 20 21 22 22 21 20 20 22 24 24 25 26 26 28 29 29 27 26 28 31 34 33 33 33 32 35 36 31
15 14 13 13 14 15 15 14 12 13 13 10 9 10 11 11 11 12 15 16 18 22 27 30 33 32 28 30 33 35 38 39 38 39 37 37 39 41 39 35 33 35 34 32 30 27 25 25 24 25 25 26 28 28 28 26 25 25 24 22 18 17 16 16 15 15 14 14 16 18 19 20 19 19 18 17 19 21 23 25 27 27 27 29 30 31 29 28 29 32 33 32 31 32 33 37 35
15 14 14 13 12 12 13 13 11 12 13 13 11 9 8 8 10 10 10 11 13 17 23 26 29 31 29 29 32 34 36 38 37 36 37 37 39 41 40 37 35 36 35 33 30 27 25 24 24 24 24 25 26 26 26 25 23 24 23 21 18 17 16 16 15 15 14 14 16 17 18 18 18 18 17 17 17 18 20 23 25 27 28 28 30 32 31 30 29 30 33 32 30 31 32 34 36
15 15 13 13 12 12 12 13 12 11 14 16 13 10 10 9 8 8 8 9 9 11 17 24 27 28 26 25 27 30 34 37 36 34 34 37 39 40 40 37 35 34 32 30 29 27 25 25 24 24 23 24 24 25 24 23 23 22 21 19 18 17 16 15 15 15 15 15 15 16 17 18 18 18 18 17 16 17 18 20 22 24 26 27 28 31 32 31 31 30 32 32 31 31 31 32 34
15 14 13 13 13 12 12 14 15 16 16 14 11 11 11 10 9 8 8 9 8 7 11 21 28 27 24 22 23 26 32 35 34 31 31 35 38 39 38 34 31 29 29 28 27 27 27 26 25 24 24 24 24 24 23 23 22 21 19 17 16 16 15 14 14 15 15 16 15 15 16 17 17 17 17 17 17 16 17 18 20 21 21 22 24 27 30 31 31 30 30 32 32 32 32 32 32
15 14 14 14 14 14 12 14 16 18 18 14 11 10 10 11 10 8 8 9 9 8 8 16 26 29 26 24 23 26 31 34 32 29 31 35 37 38 37 34 29 27 27 27 27 28 28 28 26 24 23 24 24 24 24 24 22 19 17 15 14 14 13 14 15 15 16 15 14 14 15 15 16 16 17 17 17 17 16 17 19 19 19 19 20 22 25 28 30 30 29 30 31 32 32 32 32
17 16 17 16 16 15 13 12 13 16 19 17 15 13 11 11 10 8 9 9 10 10 8 12 20 24 24 23 22 24 27 29 29 27 30 33 35 38 38 37 33 29 27 28 27 27 28 28 26 24 23 23 24 24 25 25 23 20 17 15 14 14 14 14 14 15 15 15 15 15 15 15 16 16 16 17 17 17 17 17 17 18 19 18 17 18 20 22 25 28 28 28 30 30 30 30 31
18 18 19 18 16 15 14 13 11 13 18 20 19 18 16 13 12 11 10 10 11 11 10 13 16 18 18 18 19 21 23 26 28 27 29 33 36 39 39 39 38 34 31 30 28 27 28 28 27 25 23 23 23 24 24 24 22 20 18 16 14 14 14 15 15 15 14 14 15 15 15 15 16 16 16 16 16 17 17 18 17 17 18 18 17 16 16 18 20 24 27 29 29 30 29 28 29
18 18 18 17 15 15 15 16 13 11 13 17 18 22 24 18 15 16 13 11 11 11 11 14 15 16 16 16 18 20 21 24 27 28 31 34 37 40 39 39 39 36 31 30 29 29 28 28 28 27 25 23 23 22 23 23 22 20 17 15 14 14 15 15 14 14 13 13 14 14 14 15 15 15 15 15 15 15 17 18 19 18 18 18 17 16 16 16 17 20 24 28 30 31 30 28 27